Regional Weather Roundup
Issued by NWS

Home | Current Version | Previous Version | Text Only | Print | Product List | Glossary Off
Versions: 1 2 3 4 5 6 7 8 9 10 11 12 13 14 15 16 17 18 19 20 21 22 23 24 25 26 27 28 29 30 31 32 33 34 35 36 37 38 39 40 41 42 43 44 45 46 47 48 49 50

000
ASUS43 KDTX 240401
RWRMI
MICHIGAN HOURLY REGIONAL WEATHER ROUNDUP
NATIONAL WEATHER SERVICE DETROIT/PONTIAC MI
1200 AM EDT FRI OCT 24 2014

NOTE: "FAIR" INDICATES FEW OR NO CLOUDS BELOW 12,000 FEET WITH NO
SIGNIFICANT WEATHER AND/OR OBSTRUCTION TO VISIBILITY.

MIZ047>049-052>055-059>063-066>070-074>076-081>083-240500-
SOUTHEAST LOWER MICHIGAN

CITY           SKY/WX    TMP DP  RH WIND       PRES   REMARKS
ADRIAN         CLEAR     39  36  89 CALM      30.11F
ALMA           CLOUDY    39  38  93 CALM      30.10R
ANN ARBOR      MOCLDY    33  31  92 W3        30.10S
BAD AXE        FOG       28  28 100 CALM      30.10F VSB 1/4
CARO           CLEAR     31  31  99 CALM      30.10S FOG
DETROIT CITY   CLEAR     43  39  86 CALM      30.11S
DETROIT        PTCLDY    42  37  82 SE3       30.11S
FLINT          PTCLDY    36  33  89 CALM      30.10F
GROSSE ILE     PTCLDY    45  39  81 W3        30.10R
HILLSDALE      CLEAR     35  35  98 CALM      30.10S
HOWELL         CLOUDY    38  36  93 CALM      30.10S

CITY           SKY/WX    TMP DP  RH WIND       PRES   REMARKS
JACKSON        CLEAR     37  34  89 CALM      30.10F
LAMBERTVILLE   PTCLDY    37  36  93 CALM      30.11S FOG
LANSING        MOCLDY    41  35  79 CALM      30.10S
LAPEER         FAIR      32  31  97 CALM      30.11S
MASON          PTCLDY    38  36  91 CALM      30.10S
MT. CLEMENS    CLEAR     39  39  99 W1        30.08S
PONTIAC        PTCLDY    38  35  89 CALM      30.09R
PORT HOPE        N/A     37  35  92 SW5       30.07F WCI  33
PORT HURON     PTCLDY    34  34 100 CALM      30.10F FOG
TRI CITIES     FAIR      39  34  82 SE5       30.10S
TROY           CLEAR     43  37  80 CALM      30.12R
SAGINAW HB     CLEAR     36  36 100 CALM      30.09S FOG
$$
MIZ043>046-050>051-056>058-064>065-071>073-077>080-240500-
SOUTHWEST LOWER MICHIGAN

CITY           SKY/WX    TMP DP  RH WIND       PRES   REMARKS
BATTLE CREEK   MOCLDY    41  36  82 S5        30.10F
BENTON HARBOR  CLOUDY    49  41  74 S5        30.08F
BIG RAPIDS     CLOUDY    45  45 100 CALM      30.07F
COLDWATER      PTCLDY    37  36  96 CALM      30.10F FOG
FREMONT        CLOUDY    47  43  84 CALM      30.07F
HOLLAND        CLOUDY    50  43  77 S3        30.08F
GRAND RAPIDS   CLOUDY    45  40  82 S3        30.09F
IONIA          FAIR      46  38  75 SW6       30.08F
KALAMAZOO      MOCLDY    44  39  82 CALM      30.10F HAZE
LUDINGTON      CLOUDY    51  46  83 S6        30.06F
MARSHALL       PTCLDY    35  33  91 W5        30.09F WCI  31
MOUNT PLEASANT MOCLDY    39  37  94 CALM      30.08S
MUSKEGON       CLOUDY    50  44  80 CALM      30.07F
SOUTH HAVEN    CLOUDY    51  43  74 S3        30.08F
$$
MIZ016>042-240500-
NORTHERN LOWER MICHIGAN

CITY           SKY/WX    TMP DP  RH WIND       PRES   REMARKS
ALPENA         CLEAR     28  27  96 CALM      30.07F
BEAVER ISLAND  CLOUDY    51  46  83 SW6       30.04F
BELLAIRE       CLOUDY    43  40  90 CALM      30.06F
CADILLAC       CLOUDY    45  43  92 SW3       30.06S
CHARLEVOIX     CLOUDY    47  42  80 S5        30.07F
FRANKFORT      CLOUDY    52  43  72 S5        30.06S
GAYLORD        MOCLDY    40  36  86 CALM      30.06F
GRAYLING       PTCLDY    32  31  98 CALM      30.08S
HARBOR SPRINGS CLOUDY    42  39  89 NE3       30.06S
HOUGHTON LAKE  PTCLDY    30  29  96 CALM      30.08S
OSCODA         CLEAR     30  29  96 W3        30.08F FOG
PELLSTON       CLOUDY    37  35  92 CALM      30.06F
TRAVERSE CITY  CLOUDY    49  40  71 CALM      30.04F
$$
MIZ007>008-015-240500-
EASTERN UPPER MICHIGAN

CITY           SKY/WX    TMP DP  RH WIND       PRES   REMARKS
KINROSS        CLOUDY    39  37  93 SE6       30.05F WCI  35
MACKINAC ISLAN CLOUDY    45  43  93 S6        30.04F
NEWBERRY       CLOUDY    47  44  90 SW8       30.02S
S. S. MARIE    PTCLDY    40  37  89 E3        30.05F
MUNISING         N/A     50  46  86 S7        29.98F
$$
MIZ004>006-011>014-085-240500-
CENTRAL UPPER MICHIGAN

CITY           SKY/WX    TMP DP  RH WIND       PRES   REMARKS
MANISTIQUE     CLOUDY    49  48  95 SW8       30.02S
ESCANABA       CLOUDY    48  45  87 S7        30.01S
MENOMINEE      CLOUDY    48  46  93 CALM      30.01F
SAWYER-GWINN   CLOUDY    46  44  95 S7        29.97F FOG
$$
MIZ001>003-009>011-084-240500-
WESTERN UPPER MICHIGAN

CITY           SKY/WX    TMP DP  RH WIND       PRES   REMARKS
IRON MOUNTAIN  CLOUDY    46  44  93 CALM      29.98F FOG
HOUGHTON       CLOUDY    47  45  93 W8        29.96S FOG
COPPER HARBOR    N/A     48  46  93 SW3       29.96S
IRONWOOD       MOCLDY    46  45  93 S3        29.96S
$$

ABBREVIATIONS USED IN REMARKS
   TC - TEMPERATURE IN CELSIUS
  WCI - WIND CHILL INDEX
   HX - HEAT INDEX
  VSB - VISIBILITY




USA.gov is the U.S. government's official web portal to all federal, state and local government web resources and services.